Location: Stylemans Middle
(52.8833°N, 0.3833°E)
Time: 05:39:10
(UTC+00:00)

Daily predictions for brighter satellites

Satellite Brightness Start Highest point End
(mag) Time Altitude Azimuth Time Altitude Azimuth Time Altitude Azimuth
Landsat 5 4.1 00:01:11 10° N 00:04:48 42° WNW 00:07:02 20° SW
Cosmos 2227 Rocket 2.2 00:00:18 10° NW 00:05:58 70° WSW 00:09:27 24° SSE
Gbstr 26 Del rocket 4.4 00:01:09 10° W 00:06:16 36° SSW 00:09:37 22° SSE
EO 1 Delta rocket 4.0 00:04:08 27° S 00:06:40 71° W 00:11:52 10° NNW
Cosmos 468 4.5 00:02:58 10° NNW 00:08:20 84° WSW 00:11:39 24° SSE
GEOS 3 Rocket 3.6 00:08:12 10° NE 00:13:30 79° SE 00:17:31 18° SW
Cosmos 1441 Rocket 2.8 00:20:22 37° S 00:21:38 86° ESE 00:25:06 10° NNE
Meteor 2-2 Rocket 4.2 00:18:42 10° NNW 00:24:22 90° WSW 00:28:00 23° S
Cosmos 2221 4.0 00:21:18 10° N 00:25:08 31° ENE 00:28:33 12° SE
Cosmos 1315 Rocket 3.0 00:25:00 10° NNW 00:28:45 54° W 00:30:17 31° SSW
Okean 1 4.2 00:26:10 10° N 00:29:43 39° ENE 00:32:02 18° SE
Cosmos 1655 Rocket 4.2 00:25:42 22° SSW 00:30:04 70° WNW 00:36:27 10° N
Cosmos 1812 Rocket 4.4 00:28:00 10° N 00:32:13 43° ENE 00:35:21 16° SE
Meteor 1-26 Rocket 4.1 00:27:54 10° NNW 00:33:19 85° W 00:36:44 23° S
Cosmos 1125 Rocket 3.6 00:30:24 26° S 00:33:23 66° ESE 00:38:36 10° NNE
Geosat 4.1 00:28:43 10° NE 00:33:44 65° ESE 00:36:37 25° SSW
Cosmos 1933 4.3 00:31:42 10° NNW 00:35:12 33° W 00:36:43 24° SW
Nadezhda 1 Rocket 4.3 00:29:41 10° N 00:35:53 62° ENE 00:40:50 16° SSE
Cosmos 2058 Rocket 3.5 00:37:35 10° NNW 00:41:54 49° W 00:44:04 26° SSW
H-2A R/B 2.6 00:41:17 22° SSE 00:43:39 63° ENE 00:47:34 10° N
BlueWalker 3 4.2 00:42:25 10° WSW 00:42:46 11° WSW 00:42:46 11° WSW
Cosmos 614 Rocket 3.9 00:40:46 10° NNW 00:45:48 68° WSW 00:48:55 23° S
ATLAS 5 CENTAUR R/B 2.7 00:45:07 10° NW 00:49:05 47° NE 00:53:56 10° ESE
BREEZE-M DEB (TANK) 3.5 00:48:34 10° W 00:50:49 23° WSW 00:50:49 23° WSW
CZ-4C R/B 4.0 00:48:28 10° WNW 00:53:13 33° N 00:59:11 10° NE
Cosmos 2263 Rocket 2.3 00:49:33 10° NW 00:55:05 57° WSW 00:58:41 21° S
CZ-2C R/B 2.9 00:56:20 10° NNE 01:01:08 73° ESE 01:04:01 24° S
Cosmos 2082 3.7 00:56:03 10° NNW 01:01:45 75° WSW 01:06:25 15° SSE
Cosmos 192 4.4 01:00:29 24° S 01:03:24 68° ESE 01:08:18 10° NNE
USA 32 4.1 01:00:07 22° S 01:03:34 73° E 01:08:48 10° N
Cosmos 2369 4.1 01:01:32 22° S 01:05:03 53° ESE 01:10:33 10° NE
Cosmos 1602 Rocket 3.7 01:07:34 23° S 01:10:09 67° E 01:14:29 10° NNE
Cosmos 2298 Rocket 4.3 01:07:44 22° S 01:11:06 58° ESE 01:16:19 10° NNE
Cosmos 1758 Rocket 3.5 01:09:37 25° SSW 01:12:11 84° W 01:16:40 10° N
Cosmos 1626 Rocket 3.7 01:11:27 24° SSW 01:13:58 67° WNW 01:18:23 10° N
Cosmos 2297 Rocket 4.3 01:14:29 10° WNW 01:16:06 11° W 01:17:44 10° WSW
Cosmos 2219 3.5 01:11:38 10° NW 01:17:05 48° WSW 01:20:47 20° S
SL-16 R/B 3.6 01:13:38 13° SSE 01:17:41 28° ESE 01:22:26 10° NE
USA 290 3.2 01:15:45 10° NW 01:18:44 32° WSW 01:19:34 28° SW
Cosmos 2333 Rocket 4.1 01:16:13 10° SE 01:20:10 20° E 01:24:07 10° ENE
BREEZE M DEB (TANK) 2.5 01:21:29 32° SW 01:22:07 39° S 01:25:31 10° ESE
Spot 2 3.8 01:20:18 20° SSE 01:23:00 80° WSW 01:27:01 10° NNW
ATLAS 2AS CENTAUR R/B 2.9 01:17:03 10° NW 01:23:29 47° WSW 01:29:12 13° SSE
Cosmos 921 Rocket 3.2 01:24:03 10° NNW 01:28:23 56° WSW 01:31:10 20° S
Cosmos 1980 Rocket 2.3 01:25:56 18° SW 01:30:09 74° WNW 01:35:49 10° NNE
Cosmos 1743 3.8 01:28:38 15° SSE 01:30:56 31° E 01:33:57 10° NNE
USA 215 4.4 01:30:25 18° SSW 01:32:37 21° SW 01:37:24 10° WNW
NPP 4.3 01:27:48 10° NNE 01:33:02 47° E 01:37:31 14° S
Cosmos 1697 Rocket 3.7 01:30:17 10° WSW 01:35:36 40° NW 01:40:58 10° NNE
Lacrosse 5 rocket 2.5 01:33:58 10° W 01:36:58 21° SW 01:37:12 21° SW
Cosmos 2151 2.9 01:35:22 21° S 01:38:05 86° E 01:42:14 10° NNE
Cosmos 1140 Rocket 3.8 01:35:06 10° NNW 01:40:16 69° ENE 01:45:25 10° SE
CZ-2C R/B 3.5 01:37:54 19° SSW 01:41:24 38° W 01:46:36 10° NNW
Resurs 1-4 Rocket 3.5 01:38:16 10° NNE 01:43:00 32° E 01:47:43 10° SSE
GENESIS II 3.2 01:44:58 27° SW 01:46:17 82° NW 01:49:02 10° NE
Cosmos 2227 Rocket 4.1 01:46:15 10° WNW 01:48:58 14° W 01:51:13 11° WSW
Cosmos 1076 Rocket 4.2 01:46:03 13° SSE 01:49:38 49° E 01:53:44 10° NNE
Landsat 4 4.1 01:49:58 23° SW 01:50:47 26° W 01:53:14 10° NW
Cosmos 1844 Rocket 2.7 01:45:26 10° NNW 01:51:06 87° WSW 01:56:42 10° SSE
Cosmos 1238 Rocket 3.7 01:48:00 10° NNW 01:53:07 55° W 01:56:48 17° SSW
Cosmos 407 Rocket 4.3 01:49:58 10° NNW 01:55:08 55° ENE 02:00:19 10° SE
Cosmos 2227 4.2 01:49:31 10° NW 01:55:11 68° WSW 02:00:51 10° SSE
Cosmos 1844 3.7 01:49:42 10° NNW 01:55:25 88° WSW 02:01:10 10° SSE
CZ-2D R/B 3.3 01:51:49 10° NNE 01:56:39 36° E 02:01:25 10° SSE
IDEFIX/ARIANE 42P 2.6 01:52:37 10° NNE 01:57:50 83° ESE 02:02:09 15° SSW
EP 1 4.2 01:56:30 10° NW 01:59:06 85° NE 02:01:55 10° SE
Meteor 1-19 Rocket 4.2 01:53:49 10° NNW 01:59:17 66° W 02:04:34 12° S
H-2A R/B 2.8 01:57:26 10° NNE 02:01:32 47° E 02:05:29 11° S
Cosmos 2221 3.4 01:58:25 10° NNW 02:02:15 33° W 02:04:55 17° SW
Cosmos 2237 4.3 01:58:13 16° SSW 02:02:48 78° ESE 02:08:31 10° NNE
Cosmos 1953 Rocket 3.6 02:04:16 14° S 02:07:58 77° E 02:12:18 10° NNE
Cosmos 2360 Rocket 3.4 02:03:21 10° S 02:08:20 34° ESE 02:13:22 10° NE
SeaSat 1 2.4 02:04:11 10° SSE 02:09:05 81° WSW 02:14:02 10° NNW
Cosmos 1346 Rocket 2.6 02:09:59 17° SSW 02:12:46 77° WNW 02:16:30 10° N
Cosmos 2278 3.9 02:08:06 14° SSW 02:12:57 65° ESE 02:18:34 10° NE
Cosmos 1733 3.0 02:14:22 13° S 02:16:51 58° E 02:19:48 10° NNE
Cosmos 1269 Rocket 4.2 02:12:32 10° NNW 02:17:40 52° WSW 02:22:46 10° S
H-2A R/B 4.2 02:16:38 12° WSW 02:18:25 15° W 02:20:47 10° NW
Molniya-1 4.4 02:19:20 15° SSW 02:22:19 62° SE 02:31:23 10° NE
Cosmos 2219 Rocket 3.8 02:18:33 10° SSE 02:23:09 27° ESE 02:27:46 10° NE
H-2A R/B 4.3 02:20:47 10° NE 02:24:10 18° E 02:27:30 10° SE
Cosmos 1825 Rocket 4.1 02:22:59 14° SW 02:26:31 46° WNW 02:30:47 10° N
Cosmos 2074 Rocket 4.3 02:20:28 10° S 02:26:36 67° E 02:32:47 10° NNE
ADEOS II 2.9 02:24:31 10° NNE 02:29:37 48° E 02:34:40 10° S
CENTAUR R/B 2.9 02:24:36 12° SSW 02:29:46 56° SE 02:36:44 10° NE
Cosmos 2322 Rocket 2.7 02:24:50 10° S 02:30:18 55° ESE 02:35:48 10° NE
ATLAS 5 CENTAUR R/B 2.1 02:27:46 10° WNW 02:31:58 43° SW 02:37:05 10° SSE
ALOS 3.0 02:27:43 10° NNE 02:32:10 48° E 02:36:34 10° S
MOZ.5/SAFIR/RUBIN 5/SL-8 4.4 02:30:28 11° SSW 02:34:36 37° W 02:38:59 10° NNW
Meteor 1-18 Rocket 4.4 02:31:57 10° N 02:37:34 77° ENE 02:43:06 10° SSE
Cosmos 2263 Rocket 4.2 02:36:48 10° W 02:37:45 10° W 02:38:41 10° WSW
Cosmos 2251 Rocket 3.8 02:32:32 10° NNW 02:37:52 73° ENE 02:43:07 10° SSE
Meteor 1-25 Rocket 4.4 02:36:58 11° SSW 02:42:25 64° WNW 02:48:09 10° N
NOSS 3-2 (A) 4.4 02:38:20 10° S 02:42:53 33° ESE 02:48:13 10° NE
CZ-4C R/B 4.4 02:37:38 10° NW 02:43:05 36° NNE 02:49:53 10° E
Envisat 3.7 02:38:24 10° NNE 02:43:23 53° E 02:48:21 10° S
DMSP B5D2-2 4.3 02:39:09 10° SSE 02:44:23 78° ENE 02:49:37 10° NNW
Meteor 1-27 Rocket 4.3 02:39:33 10° NNW 02:45:09 45° W 02:50:43 10° SSW
SL-23 DEB 3.6 02:42:42 10° WSW 02:45:46 55° SSE 02:49:24 10° E
MSX 4.3 02:42:13 10° N 02:47:44 50° WNW 02:53:14 10° SW
SAR-Lupe-3 4.2 02:45:01 10° SSE 02:47:57 79° ENE 02:50:55 10° NNW
Cosmos 2278 Rocket 4.3 02:44:50 10° NNW 02:49:57 33° NE 02:55:03 10° ESE
Cosmos 1190 Rocket 4.3 02:46:21 10° NNW 02:51:33 74° ENE 02:56:44 10° SSE
Cosmos 2181 Rocket 4.4 02:46:19 10° NNW 02:52:09 47° W 02:57:57 10° SSW
NOAA 11 4.4 02:48:01 10° NNE 02:53:31 75° ESE 02:58:55 10° S
USA 276 2.9 02:51:56 11° SW 02:54:07 25° SSE 02:56:17 10° ESE
FENGYUN 3A 3.9 02:49:08 10° N 02:54:27 59° WNW 02:59:46 10° SW
SL-16 R/B 2.8 02:50:50 10° SSE 02:57:05 79° ENE 03:03:23 10° NNW
Cosmos 1842 Rocket 4.4 02:55:14 10° NNW 02:59:12 34° W 03:03:08 10° SSW
SL-16 R/B 2.5 02:55:46 10° SW 03:01:23 64° NW 03:07:03 10° NNE
Cosmos 1707 3.3 02:59:11 10° NNW 03:02:05 29° W 03:04:59 10° SSW
Cosmos 2333 Rocket 2.3 02:58:00 10° SSW 03:03:44 88° WNW 03:09:27 10° NNE
Cosmos 1805 4.2 03:00:38 10° SSE 03:03:52 39° E 03:07:08 10° NNE
Cosmos 1743 4.0 03:02:25 10° WSW 03:05:03 21° WNW 03:07:42 10° NNW
Meteor 2-4 Rocket 4.0 03:03:08 10° NNW 03:08:13 44° W 03:13:15 10° SSW
Cosmos 44 Rocket 3.3 03:04:09 10° SW 03:08:50 75° NW 03:13:38 10° NE
